[[{"header":{"parameterUnit":"m.s-1","parameterCategory":1,"la1":30.2991,"la2":30.254,"lo1":-89.0895,"lo2":-89.0444,"dy":0.0017,"dx":0.0017,"nx":28,"ny":28,"refTime":"2024-07-03T03:00:00:Z","depth":0,"parameterNumber":2,"parameterNumberName":"U-component_of_WINDS"},"data":[0,0,0,0,0,0,0,0,0,0,0,0,0,0,0,0,0,0,0,0,0,0,0,0,0,0,0,0,0,0,0,0,0,0,0,0,0,0,0,0,0,0,0,0,0,0,0,0,0,0,0,0,0,0,0,0,0,0,-1.8035,-1.8034,0,-1.7996,-1.7995,-1.7995,-1.7997,-1.7998,-1.7998,-1.7999,-1.7957,-1.7955,-1.7953,0,0,0,0,0,0,0,0,0,0,0,0,0,-1.8108,-1.8107,-1.8035,-1.8034,-1.8034,-1.7996,-1.7995,-1.7995,-1.7997,-1.7998,-1.7998,-1.7999,-1.7957,-1.7955,-1.7953,0,0,0,0,0,0,0,0,0,0,0,0,0,-1.8073,-1.8106,-1.8035,-1.803,-1.803,-1.7996,-1.7995,-1.7994,-1.7997,-1.7998,-1.7998,-1.7999,-1.7958,-1.7955,-1.7953,-1.792,0,0,-1.7945,-1.7944,0,0,0,0,0,0,0,0,-1.8075,-1.8071,-1.8032,-1.8031,-1.803,-1.8002,-1.8005,-1.7969,-1.7996,-1.8009,-1.7999,-1.8,-1.7971,-1.7967,-1.7958,-1.7918,-1.7916,-1.7945,-1.7944,-1.7942,-1.7942,0,0,0,0,0,0,0,-1.8078,-1.8072,-1.8019,-1.8031,-1.803,-1.8029,-1.8025,-1.7999,-1.7986,-1.8008,-1.8008,-1.8004,-1.797,-1.796,-1.7957,-1.7916,-1.7945,-1.7943,-1.7941,-1.794,-1.7844,-1.7843,0,0,0,0,0,0,-1.8081,-1.8074,-1.802,-1.8018,-1.8055,-1.8027,-1.8023,-1.801,-1.7986,-1.7983,-1.8003,-1.8004,-1.7964,-1.796,-1.7956,-1.7914,-1.7942,-1.794,-1.7939,-1.7845,-1.7844,-1.7843,0,0,0,0,0,0,-1.8083,-1.8077,-1.8022,-1.8046,-1.8039,-1.8025,-1.8011,-1.8009,-1.7999,-1.7982,-1.7979,-1.7995,-1.7965,-1.7959,-1.7928,-1.7912,-1.7939,-1.7937,-1.7846,-1.7845,-1.7843,-1.7831,0,0,0,0,0,0,-1.8085,-1.8077,-1.8066,-1.8046,-1.8038,-1.7997,-1.801,-1.8007,-1.7995,-1.7996,-1.7974,-1.7971,-1.7965,-1.7932,-1.7926,-1.7909,-1.7935,-1.7848,-1.7846,-1.7844,-1.7833,-1.7829,-1.7826,0,0,0,0,0,-1.8088,-1.8064,-1.8065,-1.8059,-1.8023,-1.7996,-1.7991,-1.7985,-1.7994,-1.7981,-1.797,-1.7972,-1.7915,-1.7929,-1.7922,-1.7904,-1.7849,-1.7846,-1.7844,-1.7834,-1.783,-1.7826,0,0,0,0,0,0,-1.8082,-1.8061,-1.8062,-1.8032,-1.8015,-1.7996,-1.798,-1.7981,-1.7961,-1.7963,-1.7955,-1.795,-1.7919,-1.7909,-1.7925,-1.787,-1.7883,-1.7879,-1.7878,-1.7873,-1.787,-1.7873,-1.7933,0,0,0,0,0,-1.8078,-1.8058,-1.804,-1.8015,-1.8007,-1.7995,-1.7983,-1.7979,-1.7962,-1.7955,-1.7941,-1.7924,-1.7901,-1.7887,-1.7866,-1.7831,-1.7825,-1.7816,-1.7812,-1.781,-1.7806,-1.7784,-1.7778,-1.7835,-1.7835,-1.7835,0,0,-1.8068,-1.8054,-1.8042,-1.8013,-1.8,-1.7978,-1.7989,-1.7966,-1.795,-1.7951,-1.7921,-1.791,-1.789,-1.7856,-1.7841,-1.7847,-1.7789,-1.7806,-1.7805,-1.7802,-1.7781,-1.7775,-1.7771,-1.7833,-1.7833,-1.7834,0,0,-1.8038,-1.8026,-1.8003,-1.7989,-1.7969,-1.7961,-1.7955,-1.7935,-1.7928,-1.7898,-1.7898,-1.7877,-1.784,-1.7824,-1.7812,-1.7773,-1.7774,-1.7767,-1.7749,-1.7728,-1.7723,-1.7719,-1.7703,-1.7698,-1.7763,-1.7763,-1.7763,0,-1.8028,-1.7996,-1.799,-1.7966,-1.7953,-1.7953,-1.7928,-1.7915,-1.7889,-1.7879,-1.7886,-1.7837,-1.7824,-1.7785,-1.7776,-1.7766,-1.7758,-1.7769,-1.7724,-1.772,-1.7716,-1.7701,-1.7695,-1.7763,-1.7763,-1.7763,-1.7763,0,-1.7983,-1.7961,-1.7944,-1.7918,-1.7903,-1.7879,-1.7868,-1.7853,-1.785,-1.784,-1.7808,-1.7791,-1.7766,-1.7757,-1.7754,-1.7717,-1.7721,-1.7726,-1.7739,-1.771,-1.7695,-1.769,-1.7761,-1.7762,-1.7762,-1.7762,0,0,-1.795,-1.792,-1.7914,-1.7901,-1.7878,-1.786,-1.7834,-1.7809,-1.7795,-1.7777,-1.7754,-1.7721,-1.7725,-1.7711,-1.7706,-1.7688,-1.7655,-1.7695,-1.7694,-1.7686,-1.761,-1.7605,-1.7598,-1.7656,-1.7655,-1.7654,-1.7611,0,-1.7916,-1.7872,-1.7865,-1.7825,-1.7803,-1.7802,-1.7779,-1.7762,-1.7752,-1.773,-1.7719,-1.7695,-1.7704,-1.7695,-1.7676,-1.7663,-1.7639,-1.7666,-1.7632,-1.7631,-1.7636,-1.7591,-1.7586,-1.7546,-1.7605,-1.7604,-1.7604,0,-1.7872,-1.7851,-1.7809,-1.7786,-1.7777,-1.7757,-1.7732,-1.7712,-1.7691,-1.7685,-1.7668,-1.7665,-1.7636,-1.765,-1.761,-1.7628,-1.7614,-1.7605,-1.7603,-1.7598,-1.7615,-1.7583,-1.7534,-1.7527,-1.7595,-1.7596,-1.7596,0,-1.7849,-1.7811,-1.778,-1.7769,-1.7743,-1.7728,-1.7716,-1.7696,-1.7681,-1.7659,-1.7648,-1.7623,-1.7609,-1.7588,-1.7578,-1.759,-1.7537,-1.7551,-1.7529,-1.7529,-1.7517,-1.7518,-1.7463,-1.7511,-1.7511,-1.7511,-1.7511,0,-1.7811,-1.7785,-1.7769,-1.775,-1.772,-1.7711,-1.7681,-1.7669,-1.7651,-1.7628,-1.7626,-1.7604,-1.7592,-1.7568,-1.756,-1.7526,-1.752,-1.7513,-1.7511,-1.7512,-1.7513,-1.7501,-1.7503,-1.7509,-1.751,-1.751,-1.751,0,-1.778,-1.7769,-1.7735,-1.7712,-1.7705,-1.7684,-1.7663,-1.7644,-1.7633,-1.7604,-1.7597,-1.758,-1.7552,-1.7539,-1.7505,-1.7498,-1.7459,-1.746,-1.7466,-1.7465,-1.7442,-1.7444,-1.7377,-1.7367,-1.7423,-1.7423,-1.7422,0,-1.7757,-1.7736,-1.771,-1.7695,-1.7682,-1.7658,-1.7642,-1.7632,-1.7615,-1.7588,-1.7571,-1.7542,-1.7519,-1.7473,-1.7457,-1.7429,-1.7428,-1.7406,-1.7424,-1.7425,-1.7425,-1.7425,-1.7422,-1.7403,-1.7402,-1.7402,-1.7401,0,-1.7715,-1.7709,-1.7687,-1.766,-1.7641,-1.762,-1.76,-1.7587,-1.7573,-1.7554,-1.7525,-1.7506,-1.747,-1.7441,-1.7412,-1.7398,-1.7396,-1.7396,-1.7389,-1.739,-1.7393,-1.7388,-1.7455,-1.7397,-1.7398,-1.7398,-1.7398,-1.7399,-1.7685,-1.7666,-1.7644,-1.7618,-1.7601,-1.7581,-1.7561,-1.7547,-1.7523,-1.7492,-1.7488,-1.7456,-1.7432,-1.7393,-1.7378,-1.7352,-1.7357,-1.7348,-1.7345,-1.7342,-1.7339,-1.7399,-1.7347,-1.7347,-1.7347,-1.7347,-1.7347,0,-1.7642,-1.7627,-1.7603,-1.7573,-1.7552,-1.7553,-1.7529,-1.7511,-1.7483,-1.7462,-1.7438,-1.7403,-1.7374,-1.7355,-1.7325,-1.7307,-1.7305,-1.7299,-1.73,-1.7296,-1.7338,-1.7346,-1.7301,-1.7301,-1.7301,-1.7301,-1.7301,-1.7301,-1.7616,-1.7583,-1.7574,-1.7531,-1.7517,-1.7485,-1.7471,-1.7452,-1.7435,-1.7396,-1.7371,-1.7359,-1.7338,-1.7306,-1.7278,-1.7273,-1.7261,-1.7255,-1.725,-1.7289,-1.7293,-1.7298,-1.7305,-1.7253,-1.7253,-1.721,-1.7209,-1.7209]},{"header":{"parameterUnit":"m.s-1","parameterCategory":1,"la1":30.2991,"la2":30.254,"lo1":-89.0895,"lo2":-89.0444,"dy":0.0017,"dx":0.0017,"nx":28,"ny":28,"refTime":"2024-07-03T03:00:00:Z","depth":0,"parameterNumber":3,"parameterNumberName":"V-component_of_WINDS"},"data":[0,0,0,0,0,0,0,0,0,0,0,0,0,0,0,0,0,0,0,0,0,0,0,0,0,0,0,0,0,0,0,0,0,0,0,0,0,0,0,0,0,0,0,0,0,0,0,0,0,0,0,0,0,0,0,0,0,0,2.2173,2.2173,0,2.2214,2.2215,2.2215,2.2173,2.2171,2.2169,2.2168,2.2208,2.221,2.2213,0,0,0,0,0,0,0,0,0,0,0,0,0,2.2055,2.2058,2.2173,2.2173,2.2174,2.2214,2.2215,2.2215,2.2173,2.2171,2.2169,2.2167,2.2207,2.221,2.2213,0,0,0,0,0,0,0,0,0,0,0,0,0,2.2103,2.2059,2.2173,2.2158,2.2157,2.2214,2.2215,2.2215,2.2173,2.2171,2.2168,2.2166,2.2206,2.2209,2.2213,2.2286,0,0,2.2225,2.2227,0,0,0,0,0,0,0,0,2.21,2.2107,2.2159,2.2159,2.2158,2.2186,2.2188,2.2239,2.2174,2.2167,2.2168,2.2165,2.2202,2.2206,2.2219,2.2288,2.229,2.2225,2.2228,2.2229,2.2231,0,0,0,0,0,0,0,2.2097,2.2105,2.2189,2.216,2.2159,2.2148,2.2152,2.2197,2.2198,2.2167,2.2164,2.217,2.2201,2.2216,2.222,2.2291,2.2225,2.2229,2.2231,2.2233,2.2422,2.2424,0,0,0,0,0,0,2.2095,2.2102,2.2188,2.219,2.2122,2.2152,2.2157,2.2179,2.2197,2.2198,2.2172,2.2168,2.221,2.2215,2.2221,2.2308,2.2229,2.2233,2.2235,2.2419,2.2422,2.2425,0,0,0,0,0,0,2.2093,2.2103,2.2186,2.2146,2.2155,2.2157,2.2183,2.2181,2.2196,2.2201,2.22,2.2187,2.2208,2.2216,2.2271,2.2309,2.2235,2.2238,2.2416,2.242,2.2424,2.2483,0,0,0,0,0,0,2.209,2.2103,2.2131,2.2147,2.2158,2.2236,2.2185,2.2184,2.2203,2.2198,2.2214,2.2215,2.2207,2.2265,2.2275,2.2313,2.2241,2.2413,2.2418,2.2423,2.2477,2.2488,2.2497,0,0,0,0,0,2.2086,2.2145,2.2133,2.2143,2.2193,2.2238,2.2244,2.2235,2.2206,2.2234,2.2238,2.2214,2.2303,2.2271,2.2281,2.2321,2.241,2.2416,2.2422,2.2473,2.2486,2.2497,0,0,0,0,0,0,2.2133,2.2147,2.2133,2.22,2.2218,2.2231,2.2266,2.2249,2.2276,2.227,2.2256,2.226,2.2319,2.2325,2.2289,2.2393,2.2352,2.236,2.2387,2.2399,2.2409,2.2406,2.2245,0,0,0,0,0,2.2152,2.2188,2.2198,2.2255,2.2266,2.2265,2.2284,2.2275,2.2293,2.23,2.2308,2.2326,2.2357,2.2379,2.2408,2.2478,2.2481,2.2511,2.2521,2.2529,2.2536,2.2574,2.2587,2.2445,2.2445,2.2445,0,0,2.219,2.2202,2.2225,2.2265,2.2279,2.2316,2.2271,2.2312,2.234,2.2306,2.2359,2.2365,2.2384,2.2447,2.2475,2.2455,2.2576,2.2537,2.2543,2.2546,2.2581,2.2595,2.2607,2.2449,2.2449,2.2448,0,0,2.2278,2.2291,2.2341,2.2355,2.2376,2.2375,2.2387,2.2403,2.2406,2.2459,2.2435,2.2467,2.2522,2.2537,2.2551,2.2646,2.2626,2.2656,2.2709,2.2745,2.2757,2.2766,2.28,2.2812,2.2663,2.2664,2.2664,0,2.2322,2.2378,2.2368,2.2411,2.243,2.2402,2.2452,2.2466,2.2496,2.2509,2.2485,2.2555,2.2565,2.2631,2.2655,2.2668,2.268,2.2654,2.2756,2.2766,2.2775,2.2807,2.2819,2.2667,2.2667,2.2666,2.2666,0,2.2432,2.2471,2.2508,2.2539,2.2561,2.2607,2.2603,2.2627,2.2617,2.2618,2.2672,2.2685,2.2716,2.2731,2.2721,2.2796,2.2783,2.2758,2.2716,2.2792,2.2822,2.2834,2.2672,2.2671,2.267,2.2669,0,0,2.2551,2.2575,2.2589,2.2603,2.2624,2.2654,2.2699,2.2731,2.2752,2.2773,2.281,2.2858,2.2835,2.2852,2.2843,2.2875,2.295,2.2847,2.2847,2.2865,2.3033,2.3052,2.3066,2.2937,2.2939,2.2941,2.3032,0,2.264,2.2719,2.2711,2.2786,2.2822,2.2797,2.2836,2.2853,2.2855,2.2886,2.2888,2.2922,2.289,2.29,2.2931,2.2934,2.2983,2.2927,2.297,2.2972,2.2967,2.3082,2.3101,2.3187,2.3043,2.3045,2.3047,0,2.2754,2.2781,2.2859,2.2876,2.289,2.2926,2.2955,2.2984,2.3003,2.3002,2.3022,2.3007,2.3052,2.301,2.3071,2.3033,2.305,2.3055,2.3058,2.3061,2.3014,2.3088,2.3214,2.3227,2.3065,2.3064,2.3062,0,2.2833,2.2888,2.2943,2.2955,2.2975,2.3001,2.301,2.3027,2.3047,2.3072,2.3085,2.3114,2.313,2.3153,2.3147,2.3117,2.321,2.3167,2.3211,2.3211,2.3231,2.323,2.3361,2.3242,2.3242,2.3242,2.3242,0,2.2933,2.2982,2.2978,2.3012,2.3066,2.3057,2.311,2.3116,2.3131,2.3165,2.3145,2.3177,2.3167,2.3198,2.3194,2.3245,2.3252,2.3253,2.3251,2.3255,2.3255,2.3266,2.326,2.3245,2.3245,2.3244,2.3243,0,2.3031,2.303,2.3088,2.3103,2.3108,2.3147,2.3159,2.3191,2.3192,2.3235,2.3244,2.3246,2.3282,2.3278,2.3318,2.3315,2.3379,2.337,2.3373,2.3371,2.3415,2.3411,2.3557,2.3576,2.3445,2.3447,2.3448,0,2.3095,2.3132,2.3152,2.3173,2.3185,2.322,2.324,2.3232,2.3254,2.3279,2.3307,2.3341,2.3368,2.3427,2.3431,2.3461,2.3453,2.3502,2.3457,2.346,2.3454,2.3452,2.3456,2.3511,2.3513,2.3514,2.3515,0,2.3209,2.3207,2.3237,2.3268,2.3294,2.3317,2.3339,2.3358,2.3351,2.3377,2.3414,2.3435,2.3477,2.3511,2.354,2.3549,2.3531,2.3529,2.3541,2.3545,2.3545,2.3546,2.3397,2.3526,2.3525,2.3524,2.3523,2.3523,2.3291,2.3324,2.3342,2.3377,2.3393,2.3414,2.3444,2.3449,2.348,2.3514,2.3507,2.3549,2.3566,2.3604,2.3616,2.3648,2.363,2.3647,2.3651,2.3656,2.3661,2.354,2.3653,2.3653,2.3653,2.3652,2.3652,0,2.3404,2.3415,2.3448,2.3479,2.3507,2.3488,2.3511,2.3535,2.3572,2.3591,2.3618,2.3661,2.3694,2.3701,2.3733,2.3757,2.375,2.3766,2.3764,2.3767,2.3675,2.3662,2.3771,2.3771,2.3771,2.3771,2.3771,2.3771,2.3466,2.352,2.352,2.3581,2.3592,2.3633,2.3648,2.3667,2.3682,2.373,2.3758,2.3763,2.3777,2.381,2.3839,2.384,2.3853,2.3872,2.387,2.3785,2.3773,2.3761,2.3749,2.3875,2.3875,2.3959,2.396,2.3961]}]]